Theta_e
314 314 314 314 314 314 314 314 314 314 314 314 314 314 314 314 314 306 298 304 308 317 320 308 310 307 306 302 302 298 288 286 290 293 294 299 297 303 308 305 307 310 328 335 346
314 314 314 313 313 313 313 313 314 314 314 314 314 314 314 313 304 299 309 315 319 320 311 306 304 305 300 301 301 296 287 289 294 299 296 299 299 301 303 303 303 308 333 345 345
313 313 313 313 313 313 313 313 313 314 314 313 314 313 312 311 296 296 317 319 320 321 312 306 304 302 296 297 299 297 293 296 295 298 298 300 301 302 300 298 303 302 323 342 342
313 313 312 312 312 313 312 313 313 314 314 313 313 313 312 305 288 306 326 325 322 318 313 304 298 294 292 293 297 294 299 300 297 300 298 298 301 301 301 303 306 305 309 340 339
313 312 312 312 312 313 313 313 313 313 313 313 313 312 304 295 296 307 326 328 321 315 308 300 295 294 290 292 294 294 297 301 301 301 300 302 301 301 302 306 306 306 307 335 338
312 312 312 312 312 313 313 313 313 313 312 312 313 310 299 291 303 308 316 317 318 311 309 300 298 297 293 292 292 296 297 299 301 300 300 300 301 300 305 307 304 303 303 323 336
313 313 312 312 312 313 313 312 312 312 313 313 314 307 300 296 307 307 306 313 311 311 305 305 304 299 297 294 297 296 293 296 296 297 297 300 296 298 304 306 302 301 303 307 332
312 312 312 312 312 312 312 312 312 314 316 314 313 306 295 307 306 306 305 304 308 310 312 309 307 304 301 304 301 294 293 288 295 298 299 299 293 302 304 304 302 302 301 303 310
312 311 311 311 311 312 311 310 312 316 315 314 305 299 295 311 307 311 306 303 306 308 303 312 304 300 296 292 289 290 286 289 294 298 298 297 295 300 304 303 302 303 301 302 302
311 310 310 310 311 310 309 310 311 313 312 311 309 298 299 299 306 307 308 308 303 302 299 298 294 291 290 289 283 286 288 290 291 296 298 296 296 299 300 302 301 302 305 302 301
311 310 309 310 310 309 305 301 299 296 301 297 298 298 301 305 308 304 306 304 302 298 290 294 288 287 288 292 293 293 291 290 294 298 295 295 296 298 299 300 300 301 300 302 302
310 310 309 309 309 308 301 296 301 302 293 301 301 300 304 303 298 302 303 297 295 291 294 293 287 292 293 294 292 291 289 289 294 298 296 295 294 298 299 299 300 300 300 300 300
309 309 309 309 307 300 295 299 304 301 291 297 301 299 295 298 296 295 298 299 296 292 291 290 294 299 295 292 290 290 289 289 289 294 295 293 290 293 297 299 301 301 302 302 302
309 308 308 307 298 295 297 304 302 301 286 292 293 294 296 296 293 299 300 297 296 292 294 292 296 296 294 293 294 288 294 294 294 290 284 291 282 289 292 295 297 300 300 302 303
308 308 307 307 295 294 300 301 302 299 275 294 292 297 295 292 293 294 301 297 290 289 292 289 292 292 292 292 296 291 298 296 294 291 288 289 283 287 292 291 294 297 300 301 302
308 307 307 299 295 298 302 301 297 286 277 290 293 290 288 292 293 294 294 297 295 289 294 292 297 294 294 297 297 299 295 293 292 290 284 288 286 287 291 292 295 298 300 302 302
307 307 303 302 295 300 300 294 283 279 293 288 288 291 287 287 289 290 288 286 282 279 280 286 288 295 297 291 295 293 288 278 281 282 281 290 286 289 294 296 296 297 298 300 302
305 304 299 301 299 300 295 288 278 288 288 292 290 289 284 288 287 288 286 283 288 286 282 278 278 289 293 291 289 289 289 280 277 278 280 289 285 289 297 300 301 301 299 300 301
303 294 295 299 301 298 290 279 281 286 289 288 289 284 284 287 286 285 284 284 288 288 281 280 282 293 295 296 295 289 286 291 285 286 281 285 289 294 297 297 298 297 299 298 300
293 289 293 302 300 294 286 284 286 291 292 291 284 286 281 283 283 283 283 289 289 292 292 287 279 290 294 295 296 294 294 284 283 275 277 281 284 286 290 292 298 299 300 303 306
289 287 296 301 296 288 279 282 288 293 293 289 286 285 284 283 284 283 284 288 292 291 292 289 285 286 291 289 287 288 287 287 285 282 278 277 281 290 291 297 298 300 303 303 304
288 284 296 296 285 283 281 286 291 290 293 290 289 287 285 284 283 283 284 288 292 292 287 290 287 281 285 293 296 294 290 288 280 279 284 281 282 299 299 300 302 302 304 304 305
289 285 296 293 278 279 284 286 289 289 288 287 286 289 288 284 281 284 286 292 293 292 289 290 286 278 279 289 293 289 291 291 290 290 284 279 281 295 298 299 302 300 302 305 307
288 282 286 286 285 280 281 282 283 291 289 288 287 289 284 284 287 285 285 291 293 291 297 294 287 280 275 280 285 285 289 290 287 281 284 286 287 292 294 295 298 299 301 304 306
286 282 284 279 280 282 282 283 282 283 288 288 287 286 285 281 283 284 287 288 290 293 292 291 284 284 286 287 287 287 287 287 285 286 283 285 288 292 295 299 300 303 303 304 306
282 282 284 282 283 282 281 281 282 284 284 284 284 286 286 284 285 282 287 286 285 288 287 286 284 285 281 287 287 286 288 289 288 288 287 288 288 296 298 304 304 304 304 304 308
287 287 285 284 281 279 279 282 283 285 287 288 287 286 285 288 291 291 291 290 289 286 285 285 279 278 277 285 284 282 288 291 293 295 291 286 291 297 301 304 305 308 303 309 309
Wind_Speed
19 19 19 20 20 21 21 21 20 19 18 19 18 18 18 21 21 11 12 17 13 23 7 1 2 5 4 3 4 5 1 7 9 11 5 2 2 4 4 3 6 5 8 3 20
19 19 20 20 21 21 21 21 20 20 19 19 18 17 17 20 16 12 15 14 19 9 6 8 5 6 4 6 4 5 6 13 9 17 7 4 2 5 6 9 5 8 6 18 21
20 20 21 21 21 20 21 21 21 20 19 18 16 16 16 15 7 9 5 18 16 14 3 4 4 6 3 3 6 7 13 11 2 8 5 9 9 4 4 7 5 4 6 16 21
22 23 23 23 24 23 23 23 22 21 19 17 14 12 12 2 5 1 4 15 15 8 2 3 3 6 6 8 6 5 10 15 3 6 3 4 4 6 8 17 7 10 6 13 18
24 25 25 25 26 25 25 25 25 22 19 16 12 8 3 2 14 6 2 8 11 7 9 8 6 6 7 6 5 7 4 5 11 11 10 9 15 8 23 20 7 14 6 15 15
24 26 26 26 26 26 26 26 26 22 20 15 10 4 2 5 4 6 3 2 6 11 8 7 8 7 5 6 6 4 7 14 10 9 6 11 7 6 28 10 9 11 11 11 18
23 24 25 27 27 27 27 26 26 26 20 10 8 5 5 17 5 7 6 4 4 8 7 8 7 6 4 5 7 4 8 11 7 5 8 9 12 26 17 13 7 10 10 9 14
24 25 26 27 29 28 29 28 27 21 4 7 9 5 11 6 5 8 4 5 7 7 5 8 9 6 3 6 6 4 4 1 5 8 8 8 27 26 9 7 10 10 10 9 9
26 26 27 28 30 30 31 31 20 7 12 12 6 3 13 7 4 4 6 6 11 10 7 12 6 7 3 2 5 0 5 4 7 0 3 14 25 5 8 9 9 8 8 10 8
26 26 27 29 31 29 32 24 6 7 6 7 3 3 6 10 16 13 8 6 4 5 5 7 4 5 3 4 10 5 6 5 7 5 8 16 25 8 3 7 10 9 9 10 8
27 27 28 29 31 28 17 6 6 3 1 6 13 8 22 8 8 6 8 3 3 1 5 5 4 12 8 11 11 8 13 14 11 7 7 15 21 12 6 9 9 10 9 9 10
28 28 30 30 32 33 2 3 2 8 10 11 19 10 18 7 1 12 13 3 0 7 4 2 11 10 13 10 11 11 13 16 15 15 14 20 28 16 12 13 8 10 10 11 9
28 28 28 32 34 5 2 6 5 5 4 10 3 2 5 1 3 15 16 6 3 5 6 14 8 14 12 14 13 14 14 13 11 12 12 16 25 15 9 11 12 8 9 10 15
29 30 28 30 7 5 5 5 5 2 3 7 4 4 10 5 4 12 10 5 4 4 5 8 3 11 10 10 9 13 11 9 11 4 6 5 17 10 6 13 11 14 10 13 14
32 32 29 18 4 4 7 10 10 5 3 4 7 2 7 7 8 8 9 4 3 12 5 8 11 11 12 12 7 15 5 4 8 6 3 4 5 4 7 7 9 10 11 10 12
33 34 30 3 1 7 10 10 4 5 7 5 12 9 4 5 8 6 4 5 9 6 13 14 3 3 7 12 11 2 4 1 1 4 7 12 7 9 10 10 7 6 9 10 9
35 36 18 0 3 7 7 5 5 2 13 13 19 19 5 8 10 10 10 9 3 5 3 11 15 9 9 18 10 5 5 2 3 7 7 9 8 17 9 9 11 11 10 10 9
36 29 4 4 6 5 5 7 3 4 3 17 16 14 5 13 8 11 12 8 5 6 6 4 6 10 13 23 13 10 13 6 7 4 3 2 6 15 16 14 14 13 11 10 8
27 6 5 6 5 3 6 4 2 9 13 14 17 6 3 9 4 7 6 3 1 3 3 5 6 7 7 5 7 5 9 10 4 2 1 5 8 19 6 11 7 11 10 8 8
6 4 5 16 2 5 6 3 5 10 13 9 7 7 5 9 6 8 4 4 3 3 4 5 7 9 5 4 5 5 5 4 2 5 5 5 6 15 3 2 3 4 7 7 7
4 6 4 17 4 7 4 4 6 13 6 6 4 5 6 11 4 4 7 10 3 5 7 7 7 4 3 4 2 1 1 3 3 4 5 2 9 5 8 4 4 6 7 9 8
4 5 6 8 8 3 4 10 13 13 8 5 7 4 3 8 6 5 7 3 15 4 9 3 6 4 7 4 2 2 0 4 4 3 4 3 12 5 6 5 5 7 8 8 7
5 4 5 5 5 3 6 8 7 10 10 8 7 4 5 8 7 7 7 5 14 7 4 4 3 4 7 7 4 4 1 2 3 0 9 3 7 4 6 6 7 6 8 7 7
3 6 6 5 2 2 5 5 11 8 10 15 9 4 11 11 10 8 13 8 13 18 25 5 4 5 5 3 2 3 5 4 5 3 3 11 21 13 11 11 9 6 8 8 7
4 1 1 6 4 6 4 5 9 11 5 9 4 11 15 9 14 9 5 17 15 17 2 3 5 3 8 10 10 13 15 13 13 14 11 8 9 13 9 8 7 6 7 10 6
3 4 4 4 5 6 5 3 7 14 5 10 9 21 18 10 12 23 15 14 7 5 5 6 4 4 6 11 10 13 11 11 14 15 16 17 25 18 14 5 6 9 6 6 4
3 2 3 4 4 3 3 4 14 13 11 8 16 19 18 14 20 25 22 19 15 9 4 5 2 3 5 7 11 8 4 6 9 12 11 16 13 11 3 3 4 6 1 5 9
Wind_Direction
345 341 337 333 330 327 324 322 319 317 315 315 314 313 313 312 308 295 249 220 194 239 217 200 148 167 115 192 186 128 122 230 215 195 225 184 131 304 308 236 340 265 233 187 137
345 341 338 335 331 327 324 321 319 317 315 314 315 315 317 319 301 239 240 208 224 208 142 171 163 153 170 186 206 160 178 221 201 217 204 180 111 346 322 318 298 310 345 133 142
345 342 338 334 331 327 323 321 319 316 313 315 314 315 318 327 313 249 209 204 206 168 153 152 121 144 211 167 197 194 233 248 235 240 241 265 277 220 295 294 199 343 324 157 158
345 341 338 334 331 327 323 320 318 315 313 310 307 306 313 315 297 352 134 182 191 182 145 164 144 160 192 207 219 235 237 241 239 202 237 252 282 273 238 249 286 270 319 186 173
341 340 337 333 330 327 322 318 315 313 309 302 298 299 348 301 248 296 273 176 181 169 186 176 162 155 185 199 211 241 263 234 242 242 252 273 264 274 270 256 253 285 258 199 203
337 335 332 331 328 324 321 317 313 310 306 295 276 255 167 278 225 289 248 161 155 176 183 163 198 199 213 224 185 241 230 259 265 254 244 254 265 216 256 260 212 227 229 224 201
334 333 331 328 326 323 320 317 315 309 303 269 234 200 239 244 324 338 326 222 187 190 169 207 203 188 186 282 241 279 289 293 234 208 234 197 252 235 249 297 223 221 245 219 212
335 334 332 328 326 324 320 320 317 316 355 166 170 182 248 244 247 286 187 253 233 231 241 207 186 216 183 299 322 288 255 231 296 191 214 161 258 248 166 223 244 229 235 217 223
335 335 333 329 325 325 322 321 321 61 110 138 139 183 272 297 267 259 161 246 206 224 252 245 132 197 239 192 319 272 271 283 315 354 307 197 259 259 185 218 242 236 221 237 197
335 335 331 327 323 325 324 315 283 102 120 167 169 287 268 324 317 302 217 202 240 221 205 201 192 197 51 115 241 246 254 231 246 284 234 252 261 291 318 253 249 234 233 228 200
336 333 330 327 322 328 334 354 4 345 205 223 251 247 280 272 279 307 306 177 160 204 215 212 169 228 205 211 230 254 265 266 261 286 323 275 282 289 270 250 250 237 233 221 232
334 334 329 327 321 324 321 355 196 267 299 260 259 244 259 271 321 12 1 18 275 238 221 275 226 214 215 226 228 239 251 262 272 264 257 272 277 275 260 257 234 224 235 222 231
332 331 330 324 322 345 280 238 16 341 315 301 226 172 1 304 81 25 22 339 39 12 304 240 235 218 214 227 231 237 243 253 253 264 256 273 277 268 252 259 247 231 219 230 221
332 328 332 330 341 321 283 335 309 241 33 281 356 356 2 299 49 28 11 337 338 318 346 278 298 261 241 236 217 246 237 263 292 238 246 154 278 260 241 242 229 241 217 227 226
330 327 330 332 276 322 292 332 326 60 331 38 27 123 350 45 321 18 345 349 186 267 154 239 300 308 282 252 211 257 136 239 285 302 280 261 272 271 179 244 248 235 241 222 226
330 327 334 355 316 249 306 313 40 56 252 5 1 340 4 34 327 311 51 333 280 242 243 247 220 226 283 273 241 145 227 295 240 236 229 231 192 263 236 203 245 253 242 231 226
330 325 332 2 284 327 315 24 35 159 350 353 337 333 351 347 328 357 349 351 338 307 17 321 253 235 215 281 259 164 115 279 246 210 231 225 213 248 289 258 227 242 259 252 244
330 323 277 219 237 344 21 26 15 13 3 319 331 319 354 8 341 339 330 329 53 55 315 269 301 212 209 217 230 192 195 183 213 225 277 227 213 258 218 252 241 249 251 263 265
331 335 349 311 299 140 65 23 285 11 331 321 327 304 333 354 319 346 306 257 86 78 359 292 259 289 302 249 174 191 193 221 197 195 295 205 264 281 201 251 230 244 254 264 274
334 343 290 326 317 56 75 281 340 3 333 313 310 20 335 325 315 330 293 223 287 209 65 265 279 259 268 315 245 197 175 114 282 178 220 241 230 235 357 284 205 318 294 298 298
35 16 289 336 62 44 73 297 318 342 10 319 317 281 279 330 300 286 264 286 162 271 310 256 214 257 320 202 230 189 179 74 122 136 211 241 253 218 209 224 270 276 271 281 279
4 5 327 353 49 12 359 317 301 338 335 330 282 278 25 322 282 273 249 263 299 10 314 337 306 252 245 357 240 110 165 167 139 192 235 260 254 181 165 202 219 274 277 286 270
348 283 327 42 65 353 302 294 320 352 331 5 291 4 14 304 295 253 263 270 316 339 318 338 308 333 333 354 28 57 120 114 91 167 235 202 271 190 237 235 218 265 283 276 283
29 354 329 33 74 51 322 293 345 336 302 339 274 321 341 298 272 277 273 287 341 297 289 289 262 204 207 193 144 272 220 200 161 207 269 240 264 257 301 308 293 261 282 270 258
24 10 318 317 341 327 299 310 337 345 313 307 283 325 312 288 297 259 247 308 303 289 293 227 280 291 270 277 278 263 262 258 233 231 235 257 272 269 253 273 276 292 306 279 296
60 23 349 283 298 331 325 325 325 330 287 294 318 313 307 274 277 291 290 301 268 342 5 351 298 332 284 259 260 272 269 256 247 247 241 255 275 277 271 268 307 295 300 284 317
320 292 140 266 308 338 268 357 312 326 297 266 310 310 306 298 302 287 277 265 246 266 296 295 311 339 267 334 311 280 260 257 260 262 246 229 241 293 308 296 293 311 342 355 36